Regional Weather Roundup
Issued by NWS

Home | Current Version | Previous Version | Graphics & Text | Print | Product List | Glossary On
Versions: 1 2 3 4 5 6 7 8 9 10 11 12 13 14 15 16 17 18 19 20 21 22 23 24 25 26 27 28 29 30 31 32 33 34 35 36 37 38 39 40 41 42 43 44 45 46 47 48 49 50
000
ASUS43 KDMX 250401
RWRIA

WEATHER ROUNDUP FOR IOWA
NATIONAL WEATHER SERVICE DES MOINES IA
1000 PM CST FRI NOV 24 2017

NOTE: "FAIR" INDICATES FEW OR NO CLOUDS BELOW 12,000 FEET WITH NO
SIGNIFICANT WEATHER AND/OR OBSTRUCTIONS TO VISIBILITY.

* - THESE STATIONS ARE NOT NWS STATIONS...THUS NOT UNDER NWS
QUALITY CONTROL.  THEY ALSO DO NOT REPORT WEATHER SUCH
AS PRECIPITATION OR FOG.

IAZ001>003-012>014-020>022-031>034-043>046-250500-
   NORTHWEST IOWA

CITY           SKY/WX    TMP DP  RH WIND       PRES   REMARKS
CARROLL *      CLEAR     46  36  66 NW15      29.86R
CHEROKEE *     CLEAR     39  33  79 N3        29.88R
DENISON *      CLEAR     45  36  70 NW14      29.90R
LE MARS *      CLEAR     39  32  75 CALM      29.89R
ORANGE CITY *  CLEAR     34  32  93 NW7       29.88R WCI  28
SHELDON *      CLEAR     36  30  80 NW8       29.86R WCI  29
SIOUX CITY     CLEAR     38  31  76 NW7       29.90R WCI  33
SPENCER        CLEAR     35  31  85 NW9       29.86R WCI  28
STORM LAKE *   CLEAR     41  34  75 NW12      29.87R
$$

IAZ055>058-069>071-079>083-090>094-250500-
   SOUTHWEST IOWA

CITY           SKY/WX    TMP DP  RH WIND       PRES   REMARKS
ATLANTIC *     CLEAR     43  36  75 N8        29.87R
AUDUBON *      CLEAR     45  36  70 NW7       29.87R
CLARINDA *       N/A     50  39  66 N10         N/A
COUNCIL BLFS * CLEAR     46  37  71 NW8       29.90R
CRESTON *      CLEAR     45  37  76 NW9       29.87R
HARLAN  *      CLEAR     45  36  70 NW15      29.90R
LAMONI         CLEAR     51  39  63 N10G21    29.85R
RED OAK *      CLEAR     43  36  75 NW7       29.90R
SHENANDOAH *   CLEAR     48  37  66 N7        29.90R
$$

IAZ047>049-059>061-072>074-084-250500-
   CENTRAL IOWA

CITY           SKY/WX    TMP DP  RH WIND       PRES   REMARKS
AMES           CLEAR     47  38  71 NW17      29.82R
ANKENY *       CLEAR     48  37  66 NW12G17   29.83R
BOONE *        CLEAR     48  36  61 NW17G25   29.82R
CHARITON *     CLEAR     48  39  71 NW9       29.82R
DES MOINES     CLEAR     50  37  61 NW15G22   29.83R
GRINNELL*      CLEAR     45  38  76 NW14      29.80R
KNOXVILLE *    CLEAR     48  37  66 NW16      29.79R
MARSHALLTOWN   CLEAR     44  37  76 NW13      29.80R
NEWTON *       CLEAR     48  37  66 NW17G23   29.80R
PELLA *        CLEAR     48  38  66 NW15G21   29.81R
PERRY *          N/A     46  33  61 NW12      29.84R
$$

IAZ004>006-015-016-023>025-035-036-250500-
   NORTH CENTRAL IOWA

CITY           SKY/WX    TMP DP  RH WIND       PRES   REMARKS
ALGONA *       CLEAR     41  36  81 NW13      29.83R
CLARION *      CLEAR     39  37  93 NW10      29.81R WCI  32
ESTHERVILLE    CLEAR     37  32  82 W12       29.83R WCI  29
FORT DODGE *   CLEAR     42  34  73 NW7       29.85R
MASON CITY     CLEAR     41  34  76 NW15      29.80R
FOREST CITY *    N/A     43  36  75 NW12      29.79R
WEBSTER CITY * CLEAR     43  34  70 NW15      29.81R
IOWA FALLS *     N/A     44  38  78 W14       29.80R
$$

IAZ007>011-017>019-026>030-037>042-050>054-066-250500-
   NORTHEAST IOWA

CITY           SKY/WX    TMP DP  RH WIND       PRES   REMARKS
CEDAR RAPIDS   CLEAR     47  39  74 NW15      29.72R
CHARLES CITY * CLEAR     43  39  87 NW14G20   29.76R
CLINTON *      PTCLDY    51  44  77 NW17G25   29.66
DECORAH *      CLEAR     45  37  76 NW13G21   29.70R
DUBUQUE        PTCLDY    50  42  74 NW18G30   29.66R
MONTICELLO *   CLEAR     48  41  76 NW17      29.68R
OELWEIN *      CLEAR     45  41  87 NW21      29.75R
WATERLOO       CLEAR     44  37  76 NW14      29.76R
$$

IAZ064-065-067-068-078-250500-
   EAST CENTRAL IOWA

CITY           SKY/WX    TMP DP  RH WIND       PRES   REMARKS
DAVENPORT      PTCLDY    51  42  71 NW15      29.69R
IOWA CITY      CLEAR     53  41  63 NW20G28   29.73R
MT. PLEASANT * CLEAR     54  41  62 NW15      29.73R
MUSCATINE *    CLEAR     54  43  66 NW18G26   29.70R
QUAD CITIES    PTCLDY    55  42  61 NW21G32   29.66R
$$

IAZ062-063-075>077-085>089-095>099-250500-
   SOUTHEAST IOWA

CITY           SKY/WX    TMP DP  RH WIND       PRES   REMARKS
BURLINGTON     PTCLDY    56  42  59 NW17G29   29.70R
FAIRFIELD *    CLEAR     52  39  62 NW22G28   29.75R
FORT MADISON * PTCLDY    55  43  62 NW13      29.73R
KEOKUK *       PTCLDY    57  43  58 NW22G31   29.72R
OSKALOOSA *      N/A     48  39  69 N21G31    29.78R
OTTUMWA        CLEAR     50  39  66 NW22G29   29.78R
WASHINGTON *   CLEAR     52  41  66 NW23G32   29.76R
$$

ABBREVIATIONS USED IN REMARKS
   TC - TEMPERATURES IN CELSIUS
  WCI - WIND CHILL INDEX
   HX - HEAT INDEX
  VSB - VISIBILITY
$$




USA.gov is the U.S. government's official web portal to all federal, state and local government web resources and services.